West Vancouver, British Columbia

6:08 AM PDT on July 21, 2017 (GMT -0700)
West Vancouver

Weather History for CWWA - January, 2013

Change the Weather History Date:

Sunday, January 27, 2013

  Actual Average Record
Temperature  
Mean Temperature 38 °F -  
Max Temperature 39 °F - - ()
Min Temperature 36 °F - - ()
Degree Days  
Heating Degree Days 28    
Moisture  
Dew Point 36 °F    
Average Humidity 95    
Maximum Humidity 97    
Minimum Humidity 93    
Precipitation  
Precipitation 0.16 in - - ()
Sea Level Pressure  
Sea Level Pressure 29.97 in    
Wind  
Wind Speed 1 mph ()    
Max Wind Speed 2 mph    
Max Gust Speed -    
T = Trace of Precipitation, MM = Missing Value Source: Averaged Metar Reports

Daily Weather History Graph

Daily Weather History Graph

Search for Another Location

Airport or City:

Trip Planner

Search our weather history database for the weather conditions in past years. The results will help you decide how hot, cold, wet, or windy it might be!

Date:

Astronomy

Jan. 27, 2013 Rise Set
Actual Time 7:50 AM PST 5:01 PM PST
Civil Twilight 7:15 AM PST 5:36 PM PST
Nautical Twilight 6:36 AM PST 6:14 PM PST
Astronomical Twilight 5:59 AM PST 6:52 PM PST
Moon 6:11 PM PST (1/27) 7:38 AM PST (1/27)
Length of Visible Light 10h 20m
Length of Day
9h 11m
Full, 100% of the Moon is Illuminated
Jan 27
Full
Feb 3
Last Quarter
Feb 9
New
Feb 17
First Quarter
Feb 25
Full

Hourly Weather History & Observations

Time (PST) Temp. Dew Point Humidity Pressure Visibility Wind Dir Wind Speed Gust Speed Precip Events Conditions
12:00 AM 36.9 °F 35.6 °F 95% 30.00 in - Calm Calm - 0.05 in   Unknown
1:00 AM 36.5 °F 35.2 °F 95% 29.99 in - Calm Calm - 0.02 in   Unknown
2:00 AM 36.3 °F 35.2 °F 96% 29.99 in - Calm Calm - N/A   Unknown
3:00 AM 36.5 °F 35.4 °F 96% 29.99 in - Calm Calm - N/A   Unknown
4:00 AM 36 °F 35 °F 97% 29.99 in - ENE 1.2 mph - -  
4:00 AM 36.5 °F 35.4 °F 96% 29.99 in - ENE 1.2 mph - N/A   Unknown
5:00 AM 36.5 °F 35.4 °F 96% 29.98 in - North 1.2 mph - N/A   Unknown
6:00 AM 36.7 °F 35.6 °F 96% 29.98 in - NNE 1.2 mph - N/A   Unknown
7:00 AM 36.9 °F 35.8 °F 96% 29.98 in - Calm Calm - N/A   Unknown
8:00 AM 37.2 °F 36.3 °F 97% 29.98 in - NE 1.2 mph - N/A   Unknown
9:00 AM 37.6 °F 36.7 °F 97% 29.98 in - NNE 2.3 mph - N/A   Unknown
10:00 AM 38 °F 37 °F 97% 29.99 in - East 1.2 mph - -  
10:00 AM 38.3 °F 37.4 °F 97% 29.99 in - East 1.2 mph - N/A   Unknown
11:00 AM 38.3 °F 36.5 °F 93% 29.99 in - ENE 2.3 mph - 0.01 in   Unknown
12:00 PM 37.4 °F 35.6 °F 93% 29.98 in - NE 2.3 mph - 0.05 in   Unknown
1:00 PM 37.4 °F 35.8 °F 94% 29.96 in - East 1.2 mph - 0.05 in   Unknown
2:00 PM 38.8 °F 37.0 °F 93% 29.95 in - NNE 1.2 mph - 0.03 in   Unknown
3:00 PM 39.0 °F 37.0 °F 93% 29.94 in - NE 1.2 mph - 0.01 in   Unknown
4:00 PM 39 °F 38 °F 93% 29.95 in - North 1.2 mph - -  
4:00 PM 39.4 °F 37.8 °F 94% 29.95 in - North 1.2 mph - N/A   Unknown
6:00 PM 38.1 °F 36.9 °F 95% 29.94 in - Calm Calm - N/A   Unknown
7:00 PM 38.1 °F 36.9 °F 95% 29.95 in - NNE 1.2 mph - N/A   Unknown
8:00 PM 37.9 °F 36.9 °F 96% 29.95 in - NNE 1.2 mph - N/A   Unknown
9:00 PM 37.8 °F 36.7 °F 96% 29.95 in - NNE 1.2 mph - N/A   Unknown
10:00 PM 37 °F 36 °F 94% 29.94 in - North 1.2 mph - -  
10:00 PM 37.0 °F 36.0 °F 96% 29.94 in - North 1.2 mph - N/A   Unknown
11:00 PM 36.9 °F 35.8 °F 96% 29.95 in - Calm Calm - N/A   Unknown